Year,Month,Day,Hour,Minute,Value (Times are PST for insolation in W/m^2)
2017,03,25,00,00,0.00
2017,03,25,00,01,0.00
2017,03,25,00,02,0.00
2017,03,25,00,03,0.00
2017,03,25,00,04,0.00
2017,03,25,00,05,0.00
2017,03,25,00,06,0.00
2017,03,25,00,07,0.00
2017,03,25,00,08,0.00
2017,03,25,00,09,0.00
2017,03,25,00,10,0.00
2017,03,25,00,11,0.00
2017,03,25,00,12,0.00
2017,03,25,00,13,0.00
2017,03,25,00,14,0.00
2017,03,25,00,15,0.00
2017,03,25,00,16,0.00
2017,03,25,00,17,0.00
2017,03,25,00,18,0.00
2017,03,25,00,19,0.00
2017,03,25,00,20,0.00
2017,03,25,00,21,0.00
2017,03,25,00,22,0.00
2017,03,25,00,23,0.00
2017,03,25,00,24,0.00
2017,03,25,00,25,0.00
2017,03,25,00,26,0.00
2017,03,25,00,27,0.00
2017,03,25,00,28,0.00
2017,03,25,00,29,0.00
2017,03,25,00,30,0.00
2017,03,25,00,31,0.00
2017,03,25,00,32,0.00
2017,03,25,00,33,0.00
2017,03,25,00,34,0.00
2017,03,25,00,35,0.00
2017,03,25,00,36,0.00
2017,03,25,00,37,0.00
2017,03,25,00,38,0.00
2017,03,25,00,39,0.00
2017,03,25,00,40,0.00
2017,03,25,00,41,0.00
2017,03,25,00,42,0.00
2017,03,25,00,43,0.00
2017,03,25,00,44,0.00
2017,03,25,00,45,0.00
2017,03,25,00,46,0.00
2017,03,25,00,47,0.00
2017,03,25,00,48,0.00
2017,03,25,00,49,0.00
2017,03,25,00,50,0.00
2017,03,25,00,51,0.00
2017,03,25,00,52,0.00
2017,03,25,00,53,0.00
2017,03,25,00,54,0.00
2017,03,25,00,55,0.00
2017,03,25,00,56,0.00
2017,03,25,00,57,0.00
2017,03,25,00,58,0.00
2017,03,25,00,59,0.00
2017,03,25,01,00,0.00
2017,03,25,01,01,0.00
2017,03,25,01,02,0.00
2017,03,25,01,03,0.00
2017,03,25,01,04,0.00
2017,03,25,01,05,0.00
2017,03,25,01,06,0.00
2017,03,25,01,07,0.00
2017,03,25,01,08,0.00
2017,03,25,01,09,0.00
2017,03,25,01,10,0.00
2017,03,25,01,11,0.00
2017,03,25,01,12,0.00
2017,03,25,01,13,0.00
2017,03,25,01,14,0.00
2017,03,25,01,15,0.00
2017,03,25,01,16,0.00
2017,03,25,01,17,0.00
2017,03,25,01,18,0.00
2017,03,25,01,19,0.00
2017,03,25,01,20,0.00
2017,03,25,01,21,0.00
2017,03,25,01,22,0.00
2017,03,25,01,23,0.00
2017,03,25,01,24,0.00
2017,03,25,01,25,0.00
2017,03,25,01,26,0.00
2017,03,25,01,27,0.00
2017,03,25,01,28,0.00
2017,03,25,01,29,0.00
2017,03,25,01,30,0.00
2017,03,25,01,31,0.00
2017,03,25,01,32,0.00
2017,03,25,01,33,0.00
2017,03,25,01,34,0.00
2017,03,25,01,35,0.00
2017,03,25,01,36,0.00
2017,03,25,01,37,0.00
2017,03,25,01,38,0.00
2017,03,25,01,39,0.00
2017,03,25,01,40,0.00
2017,03,25,01,41,0.00
2017,03,25,01,42,0.00
2017,03,25,01,43,0.00
2017,03,25,01,44,0.00
2017,03,25,01,45,0.00
2017,03,25,01,46,0.00
2017,03,25,01,47,0.00
2017,03,25,01,48,0.00
2017,03,25,01,49,0.00
2017,03,25,01,50,0.00
2017,03,25,01,51,0.00
2017,03,25,01,52,0.00
2017,03,25,01,53,0.00
2017,03,25,01,54,0.00
2017,03,25,01,55,0.00
2017,03,25,01,56,0.00
2017,03,25,01,57,0.00
2017,03,25,01,58,0.00
2017,03,25,01,59,0.00
2017,03,25,02,00,0.00
2017,03,25,02,01,0.00
2017,03,25,02,02,0.00
2017,03,25,02,03,0.00
2017,03,25,02,04,0.00
2017,03,25,02,05,0.00
2017,03,25,02,06,0.00
2017,03,25,02,07,0.00
2017,03,25,02,08,0.00
2017,03,25,02,09,0.00
2017,03,25,02,10,0.00
2017,03,25,02,11,0.00
2017,03,25,02,12,0.00
2017,03,25,02,13,0.00
2017,03,25,02,14,0.00
2017,03,25,02,15,0.00
2017,03,25,02,16,0.00
2017,03,25,02,17,0.00
2017,03,25,02,18,0.00
2017,03,25,02,19,0.00
2017,03,25,02,20,0.00
2017,03,25,02,21,0.00
2017,03,25,02,22,0.00
2017,03,25,02,23,0.00
2017,03,25,02,24,0.00
2017,03,25,02,25,0.00
2017,03,25,02,26,0.00
2017,03,25,02,27,0.00
2017,03,25,02,28,0.00
2017,03,25,02,29,0.00
2017,03,25,02,30,0.00
2017,03,25,02,31,0.00
2017,03,25,02,32,0.00
2017,03,25,02,33,0.00
2017,03,25,02,34,0.00
2017,03,25,02,35,0.00
2017,03,25,02,36,0.00
2017,03,25,02,37,0.00
2017,03,25,02,38,0.00
2017,03,25,02,39,0.00
2017,03,25,02,40,0.00
2017,03,25,02,41,0.00
2017,03,25,02,42,0.00
2017,03,25,02,43,0.00
2017,03,25,02,44,0.00
2017,03,25,02,45,0.00
2017,03,25,02,46,0.00
2017,03,25,02,47,0.00
2017,03,25,02,48,0.00
2017,03,25,02,49,0.00
2017,03,25,02,50,0.00
2017,03,25,02,51,0.00
2017,03,25,02,52,0.00
2017,03,25,02,53,0.00
2017,03,25,02,54,0.00
2017,03,25,02,55,0.00
2017,03,25,02,56,0.00
2017,03,25,02,57,0.00
2017,03,25,02,58,0.00
2017,03,25,02,59,0.00
2017,03,25,03,00,0.00
2017,03,25,03,01,0.00
2017,03,25,03,02,0.00
2017,03,25,03,03,0.00
2017,03,25,03,04,0.00
2017,03,25,03,05,0.00
2017,03,25,03,06,0.00
2017,03,25,03,07,0.00
2017,03,25,03,08,0.00
2017,03,25,03,09,0.00
2017,03,25,03,10,0.00
2017,03,25,03,11,0.00
2017,03,25,03,12,0.00
2017,03,25,03,13,0.00
2017,03,25,03,14,0.00
2017,03,25,03,15,0.00
2017,03,25,03,16,0.00
2017,03,25,03,17,0.00
2017,03,25,03,18,0.00
2017,03,25,03,19,0.00
2017,03,25,03,20,0.00
2017,03,25,03,21,0.00
2017,03,25,03,22,0.00
2017,03,25,03,23,0.00
2017,03,25,03,24,0.00
2017,03,25,03,25,0.00
2017,03,25,03,26,0.00
2017,03,25,03,27,0.00
2017,03,25,03,28,0.00
2017,03,25,03,29,0.00
2017,03,25,03,30,0.00
2017,03,25,03,31,0.00
2017,03,25,03,32,0.00
2017,03,25,03,33,0.00
2017,03,25,03,34,0.00
2017,03,25,03,35,0.00
2017,03,25,03,36,0.00
2017,03,25,03,37,0.00
2017,03,25,03,38,0.00
2017,03,25,03,39,0.00
2017,03,25,03,40,0.00
2017,03,25,03,41,0.00
2017,03,25,03,42,0.00
2017,03,25,03,43,0.00
2017,03,25,03,44,0.00
2017,03,25,03,45,0.00
2017,03,25,03,46,0.00
2017,03,25,03,47,0.00
2017,03,25,03,48,0.00
2017,03,25,03,49,0.00
2017,03,25,03,50,0.00
2017,03,25,03,51,0.00
2017,03,25,03,52,0.00
2017,03,25,03,53,0.00
2017,03,25,03,54,0.00
2017,03,25,03,55,0.00
2017,03,25,03,56,0.00
2017,03,25,03,57,0.00
2017,03,25,03,58,0.00
2017,03,25,03,59,0.00
2017,03,25,04,00,0.00
2017,03,25,04,01,0.00
2017,03,25,04,02,0.00
2017,03,25,04,03,0.00
2017,03,25,04,04,0.00
2017,03,25,04,05,0.00
2017,03,25,04,06,0.00
2017,03,25,04,07,0.00
2017,03,25,04,08,0.00
2017,03,25,04,09,0.00
2017,03,25,04,10,0.00
2017,03,25,04,11,0.00
2017,03,25,04,12,0.00
2017,03,25,04,13,0.00
2017,03,25,04,14,0.00
2017,03,25,04,15,0.00
2017,03,25,04,16,0.00
2017,03,25,04,17,0.00
2017,03,25,04,18,0.00
2017,03,25,04,19,0.00
2017,03,25,04,20,0.00
2017,03,25,04,21,0.00
2017,03,25,04,22,0.00
2017,03,25,04,23,0.00
2017,03,25,04,24,0.00
2017,03,25,04,25,0.00
2017,03,25,04,26,0.00
2017,03,25,04,27,0.00
2017,03,25,04,28,0.00
2017,03,25,04,29,0.00
2017,03,25,04,30,0.00
2017,03,25,04,31,0.00
2017,03,25,04,32,0.00
2017,03,25,04,33,0.00
2017,03,25,04,34,0.00
2017,03,25,04,35,0.00
2017,03,25,04,36,0.00
2017,03,25,04,37,0.00
2017,03,25,04,38,0.00
2017,03,25,04,39,0.00
2017,03,25,04,40,0.00
2017,03,25,04,41,0.00
2017,03,25,04,42,0.00
2017,03,25,04,43,0.00
2017,03,25,04,44,0.00
2017,03,25,04,45,0.00
2017,03,25,04,46,0.00
2017,03,25,04,47,0.00
2017,03,25,04,48,0.00
2017,03,25,04,49,0.00
2017,03,25,04,50,0.00
2017,03,25,04,51,0.00
2017,03,25,04,52,0.00
2017,03,25,04,53,0.00
2017,03,25,04,54,0.00
2017,03,25,04,55,0.00
2017,03,25,04,56,0.00
2017,03,25,04,57,0.00
2017,03,25,04,58,0.00
2017,03,25,04,59,0.00
2017,03,25,05,00,0.00
2017,03,25,05,01,0.00
2017,03,25,05,02,0.00
2017,03,25,05,03,0.00
2017,03,25,05,04,0.00
2017,03,25,05,05,0.00
2017,03,25,05,06,0.00
2017,03,25,05,07,0.00
2017,03,25,05,08,0.00
2017,03,25,05,09,0.00
2017,03,25,05,10,0.00
2017,03,25,05,11,0.00
2017,03,25,05,12,0.00
2017,03,25,05,13,0.00
2017,03,25,05,14,0.00
2017,03,25,05,15,0.00
2017,03,25,05,16,0.00
2017,03,25,05,17,0.00
2017,03,25,05,18,0.00
2017,03,25,05,19,0.00
2017,03,25,05,20,0.00
2017,03,25,05,21,0.00
2017,03,25,05,22,0.00
2017,03,25,05,23,0.00
2017,03,25,05,24,0.00
2017,03,25,05,25,0.00
2017,03,25,05,26,0.00
2017,03,25,05,27,0.00
2017,03,25,05,28,0.00
2017,03,25,05,29,0.00
2017,03,25,05,30,0.00
2017,03,25,05,31,0.00
2017,03,25,05,32,0.00
2017,03,25,05,33,0.00
2017,03,25,05,34,0.00
2017,03,25,05,35,0.00
2017,03,25,05,36,0.00
2017,03,25,05,37,0.00
2017,03,25,05,38,0.00
2017,03,25,05,39,0.00
2017,03,25,05,40,0.00
2017,03,25,05,41,0.00
2017,03,25,05,42,0.00
2017,03,25,05,43,0.00
2017,03,25,05,44,0.00
2017,03,25,05,45,0.00
2017,03,25,05,46,0.00
2017,03,25,05,47,0.00
2017,03,25,05,48,0.00
2017,03,25,05,49,0.00
2017,03,25,05,50,0.00
2017,03,25,05,51,0.00
2017,03,25,05,52,0.00
2017,03,25,05,53,0.00
2017,03,25,05,54,0.00
2017,03,25,05,55,0.00
2017,03,25,05,56,0.00
2017,03,25,05,57,0.00
2017,03,25,05,58,0.00
2017,03,25,05,59,0.00
2017,03,25,06,00,0.00
2017,03,25,06,01,0.00
2017,03,25,06,02,0.00
2017,03,25,06,03,0.00
2017,03,25,06,04,0.00
2017,03,25,06,05,0.00
2017,03,25,06,06,0.00
2017,03,25,06,07,0.00
2017,03,25,06,08,0.00
2017,03,25,06,09,0.00
2017,03,25,06,10,0.00
2017,03,25,06,11,0.00
2017,03,25,06,12,0.00
2017,03,25,06,13,0.00
2017,03,25,06,14,0.00
2017,03,25,06,15,0.00
2017,03,25,06,16,0.00
2017,03,25,06,17,0.00
2017,03,25,06,18,0.00
2017,03,25,06,19,0.00
2017,03,25,06,20,0.00
2017,03,25,06,21,0.00
2017,03,25,06,22,0.00
2017,03,25,06,23,0.00
2017,03,25,06,24,0.00
2017,03,25,06,25,0.00
2017,03,25,06,26,0.00
2017,03,25,06,27,0.00
2017,03,25,06,28,0.00
2017,03,25,06,29,0.00
2017,03,25,06,30,0.00
2017,03,25,06,31,0.00
2017,03,25,06,32,0.00
2017,03,25,06,33,0.00
2017,03,25,06,34,0.00
2017,03,25,06,35,0.00
2017,03,25,06,36,0.00
2017,03,25,06,37,0.00
2017,03,25,06,38,0.00
2017,03,25,06,39,0.00
2017,03,25,06,40,0.00
2017,03,25,06,41,0.00
2017,03,25,06,42,0.00
2017,03,25,06,43,0.00
2017,03,25,06,44,0.00
2017,03,25,06,45,0.00
2017,03,25,06,46,0.00
2017,03,25,06,47,0.00
2017,03,25,06,48,0.00
2017,03,25,06,49,0.00
2017,03,25,06,50,0.00
2017,03,25,06,51,0.00
2017,03,25,06,52,0.00
2017,03,25,06,53,0.00
2017,03,25,06,54,0.00
2017,03,25,06,55,0.00
2017,03,25,06,56,0.00
2017,03,25,06,57,0.00
2017,03,25,06,58,0.00
2017,03,25,06,59,0.00
2017,03,25,07,00,0.00
2017,03,25,07,01,0.00
2017,03,25,07,02,0.00
2017,03,25,07,03,0.00
2017,03,25,07,04,0.00
2017,03,25,07,05,0.20
2017,03,25,07,06,5.00
2017,03,25,07,07,5.00
2017,03,25,07,08,5.00
2017,03,25,07,09,5.00
2017,03,25,07,10,5.00
2017,03,25,07,11,5.00
2017,03,25,07,12,5.70
2017,03,25,07,13,7.00
2017,03,25,07,14,7.00
2017,03,25,07,15,7.00
2017,03,25,07,16,8.10
2017,03,25,07,17,9.00
2017,03,25,07,18,9.00
2017,03,25,07,19,7.70
2017,03,25,07,20,7.00
2017,03,25,07,21,7.00
2017,03,25,07,22,7.00
2017,03,25,07,23,7.00
2017,03,25,07,24,8.70
2017,03,25,07,25,9.00
2017,03,25,07,26,9.00
2017,03,25,07,27,11.00
2017,03,25,07,28,11.00
2017,03,25,07,29,11.00
2017,03,25,07,30,11.00
2017,03,25,07,31,11.20
2017,03,25,07,32,12.50
2017,03,25,07,33,14.00
2017,03,25,07,34,14.70
2017,03,25,07,35,16.00
2017,03,25,07,36,16.00
2017,03,25,07,37,16.00
2017,03,25,07,38,16.00
2017,03,25,07,39,16.00
2017,03,25,07,40,16.00
2017,03,25,07,41,16.00
2017,03,25,07,42,16.00
2017,03,25,07,43,16.00
2017,03,25,07,44,17.60
2017,03,25,07,45,18.00
2017,03,25,07,46,18.00
2017,03,25,07,47,18.00
2017,03,25,07,48,20.90
2017,03,25,07,49,21.10
2017,03,25,07,50,23.00
2017,03,25,07,51,23.00
2017,03,25,07,52,23.00
2017,03,25,07,53,24.10
2017,03,25,07,54,28.00
2017,03,25,07,55,28.60
2017,03,25,07,56,30.70
2017,03,25,07,57,32.40
2017,03,25,07,58,33.00
2017,03,25,07,59,33.90
2017,03,25,08,00,35.00
2017,03,25,08,01,35.00
2017,03,25,08,02,40.70
2017,03,25,08,03,44.00
2017,03,25,08,04,47.40
2017,03,25,08,05,52.50
2017,03,25,08,06,58.50
2017,03,25,08,07,60.00
2017,03,25,08,08,60.00
2017,03,25,08,09,69.00
2017,03,25,08,10,73.80
2017,03,25,08,11,74.50
2017,03,25,08,12,85.40
2017,03,25,08,13,99.70
2017,03,25,08,14,114.00
2017,03,25,08,15,114.40
2017,03,25,08,16,117.20
2017,03,25,08,17,121.50
2017,03,25,08,18,128.50
2017,03,25,08,19,135.80
2017,03,25,08,20,129.40
2017,03,25,08,21,120.00
2017,03,25,08,22,106.20
2017,03,25,08,23,120.30
2017,03,25,08,24,141.60
2017,03,25,08,25,145.90
2017,03,25,08,26,148.00
2017,03,25,08,27,148.00
2017,03,25,08,28,154.00
2017,03,25,08,29,156.00
2017,03,25,08,30,161.10
2017,03,25,08,31,162.90
2017,03,25,08,32,166.80
2017,03,25,08,33,171.00
2017,03,25,08,34,171.00
2017,03,25,08,35,171.00
2017,03,25,08,36,173.20
2017,03,25,08,37,185.00
2017,03,25,08,38,185.80
2017,03,25,08,39,188.70
2017,03,25,08,40,191.10
2017,03,25,08,41,193.00
2017,03,25,08,42,196.10
2017,03,25,08,43,201.00
2017,03,25,08,44,204.20
2017,03,25,08,45,206.00
2017,03,25,08,46,210.20
2017,03,25,08,47,213.60
2017,03,25,08,48,218.20
2017,03,25,08,49,222.20
2017,03,25,08,50,223.00
2017,03,25,08,51,228.60
2017,03,25,08,52,230.00
2017,03,25,08,53,230.00
2017,03,25,08,54,220.50
2017,03,25,08,55,246.00
2017,03,25,08,56,247.10
2017,03,25,08,57,257.30
2017,03,25,08,58,260.00
2017,03,25,08,59,260.00
2017,03,25,09,00,266.80
2017,03,25,09,01,284.60
2017,03,25,09,02,278.00
2017,03,25,09,03,278.00
2017,03,25,09,04,278.00
2017,03,25,09,05,277.00
2017,03,25,09,06,288.60
2017,03,25,09,07,303.20
2017,03,25,09,08,306.00
2017,03,25,09,09,319.00
2017,03,25,09,10,327.60
2017,03,25,09,11,332.80
2017,03,25,09,12,334.00
2017,03,25,09,13,230.00
2017,03,25,09,14,204.00
2017,03,25,09,15,204.00
2017,03,25,09,16,204.00
2017,03,25,09,17,207.20
2017,03,25,09,18,260.20
2017,03,25,09,19,180.30
2017,03,25,09,20,172.60
2017,03,25,09,21,166.20
2017,03,25,09,22,171.00
2017,03,25,09,23,172.50
2017,03,25,09,24,176.00
2017,03,25,09,25,183.00
2017,03,25,09,26,195.00
2017,03,25,09,27,204.00
2017,03,25,09,28,215.80
2017,03,25,09,29,223.40
2017,03,25,09,30,227.00
2017,03,25,09,31,224.30
2017,03,25,09,32,218.10
2017,03,25,09,33,212.30
2017,03,25,09,34,208.00
2017,03,25,09,35,202.80
2017,03,25,09,36,197.50
2017,03,25,09,37,197.00
2017,03,25,09,38,197.00
2017,03,25,09,39,195.40
2017,03,25,09,40,167.00
2017,03,25,09,41,167.00
2017,03,25,09,42,167.00
2017,03,25,09,43,167.80
2017,03,25,09,44,171.00
2017,03,25,09,45,173.00
2017,03,25,09,46,178.90
2017,03,25,09,47,181.00
2017,03,25,09,48,181.00
2017,03,25,09,49,179.50
2017,03,25,09,50,178.00
2017,03,25,09,51,178.60
2017,03,25,09,52,179.00
2017,03,25,09,53,182.90
2017,03,25,09,54,183.60
2017,03,25,09,55,179.50
2017,03,25,09,56,176.50
2017,03,25,09,57,172.60
2017,03,25,09,58,169.30
2017,03,25,09,59,165.40
2017,03,25,10,00,162.10
2017,03,25,10,01,159.80
2017,03,25,10,02,155.50
2017,03,25,10,03,151.00
2017,03,25,10,04,151.00
2017,03,25,10,05,150.50
2017,03,25,10,06,150.10
2017,03,25,10,07,153.90
2017,03,25,10,08,157.40
2017,03,25,10,09,160.80
2017,03,25,10,10,162.00
2017,03,25,10,11,162.00
2017,03,25,10,12,162.00
2017,03,25,10,13,166.90
2017,03,25,10,14,175.20
2017,03,25,10,15,178.00
2017,03,25,10,16,193.40
2017,03,25,10,17,209.10
2017,03,25,10,18,219.00
2017,03,25,10,19,227.40
2017,03,25,10,20,235.80
2017,03,25,10,21,246.90
2017,03,25,10,22,256.60
2017,03,25,10,23,260.20
2017,03,25,10,24,265.30
2017,03,25,10,25,271.00
2017,03,25,10,26,271.00
2017,03,25,10,27,271.00
2017,03,25,10,28,265.80
2017,03,25,10,29,250.00
2017,03,25,10,30,250.00
2017,03,25,10,31,236.40
2017,03,25,10,32,213.80
2017,03,25,10,33,211.00
2017,03,25,10,34,215.90
2017,03,25,10,35,226.00
2017,03,25,10,36,230.00
2017,03,25,10,37,230.00
2017,03,25,10,38,257.30
2017,03,25,10,39,284.50
2017,03,25,10,40,361.20
2017,03,25,10,41,385.00
2017,03,25,10,42,355.20
2017,03,25,10,43,402.20
2017,03,25,10,44,458.40
2017,03,25,10,45,490.00
2017,03,25,10,46,484.80
2017,03,25,10,47,438.10
2017,03,25,10,48,439.00
2017,03,25,10,49,457.50
2017,03,25,10,50,517.80
2017,03,25,10,51,523.60
2017,03,25,10,52,512.00
2017,03,25,10,53,512.00
2017,03,25,10,54,512.00
2017,03,25,10,55,498.50
2017,03,25,10,56,451.00
2017,03,25,10,57,439.00
2017,03,25,10,58,484.30
2017,03,25,10,59,533.90
2017,03,25,11,00,550.00
2017,03,25,11,01,550.00
2017,03,25,11,02,550.00
2017,03,25,11,03,550.00
2017,03,25,11,04,550.00
2017,03,25,11,05,699.70
2017,03,25,11,06,716.50
2017,03,25,11,07,718.20
2017,03,25,11,08,738.90
2017,03,25,11,09,677.60
2017,03,25,11,10,646.00
2017,03,25,11,11,606.00
2017,03,25,11,12,593.10
2017,03,25,11,13,542.30
2017,03,25,11,14,515.00
2017,03,25,11,15,515.00
2017,03,25,11,16,515.00
2017,03,25,11,17,515.00
2017,03,25,11,18,515.00
2017,03,25,11,19,515.00
2017,03,25,11,20,515.00
2017,03,25,11,21,536.90
2017,03,25,11,22,547.00
2017,03,25,11,23,536.50
2017,03,25,11,24,468.20
2017,03,25,11,25,452.00
2017,03,25,11,26,452.00
2017,03,25,11,27,452.00
2017,03,25,11,28,452.00
2017,03,25,11,29,696.00
2017,03,25,11,30,690.70
2017,03,25,11,31,637.60
2017,03,25,11,32,581.30
2017,03,25,11,33,538.00
2017,03,25,11,34,476.50
2017,03,25,11,35,292.00
2017,03,25,11,36,300.40
2017,03,25,11,37,316.00
2017,03,25,11,38,316.00
2017,03,25,11,39,309.40
2017,03,25,11,40,300.40
2017,03,25,11,41,299.00
2017,03,25,11,42,299.00
2017,03,25,11,43,302.20
2017,03,25,11,44,310.30
2017,03,25,11,45,351.20
2017,03,25,11,46,364.00
2017,03,25,11,47,523.80
2017,03,25,11,48,619.20
2017,03,25,11,49,631.00
2017,03,25,11,50,631.00
2017,03,25,11,51,629.80
2017,03,25,11,52,606.00
2017,03,25,11,53,606.00
2017,03,25,11,54,628.80
2017,03,25,11,55,752.60
2017,03,25,11,56,731.00
2017,03,25,11,57,758.00
2017,03,25,11,58,827.70
2017,03,25,11,59,824.80
2017,03,25,12,00,770.80
2017,03,25,12,01,728.00
2017,03,25,12,02,728.00
2017,03,25,12,03,728.00
2017,03,25,12,04,728.00
2017,03,25,12,05,532.30
2017,03,25,12,06,418.60
2017,03,25,12,07,415.00
2017,03,25,12,08,415.00
2017,03,25,12,09,415.00
2017,03,25,12,10,286.30
2017,03,25,12,11,272.00
2017,03,25,12,12,244.00
2017,03,25,12,13,248.00
2017,03,25,12,14,248.00
2017,03,25,12,15,249.10
2017,03,25,12,16,255.00
2017,03,25,12,17,255.40
2017,03,25,12,18,257.00
2017,03,25,12,19,255.20
2017,03,25,12,20,254.90
2017,03,25,12,21,264.00
2017,03,25,12,22,265.70
2017,03,25,12,23,263.10
2017,03,25,12,24,261.00
2017,03,25,12,25,254.50
2017,03,25,12,26,243.20
2017,03,25,12,27,235.80
2017,03,25,12,28,224.40
2017,03,25,12,29,210.20
2017,03,25,12,30,207.00
2017,03,25,12,31,207.00
2017,03,25,12,32,192.60
2017,03,25,12,33,185.50
2017,03,25,12,34,178.40
2017,03,25,12,35,172.00
2017,03,25,12,36,171.90
2017,03,25,12,37,171.00
2017,03,25,12,38,171.00
2017,03,25,12,39,171.00
2017,03,25,12,40,178.80
2017,03,25,12,41,202.00
2017,03,25,12,42,218.10
2017,03,25,12,43,264.40
2017,03,25,12,44,310.60
2017,03,25,12,45,346.00
2017,03,25,12,46,349.50
2017,03,25,12,47,373.40
2017,03,25,12,48,384.60
2017,03,25,12,49,382.30
2017,03,25,12,50,361.30
2017,03,25,12,51,352.00
2017,03,25,12,52,352.00
2017,03,25,12,53,352.00
2017,03,25,12,54,352.00
2017,03,25,12,55,398.80
2017,03,25,12,56,404.00
2017,03,25,12,57,401.60
2017,03,25,12,58,356.60
2017,03,25,12,59,353.00
2017,03,25,13,00,352.00
2017,03,25,13,01,345.50
2017,03,25,13,02,336.00
2017,03,25,13,03,336.00
2017,03,25,13,04,335.40
2017,03,25,13,05,329.10
2017,03,25,13,06,324.80
2017,03,25,13,07,332.00
2017,03,25,13,08,327.00
2017,03,25,13,09,306.60
2017,03,25,13,10,287.40
2017,03,25,13,11,294.70
2017,03,25,13,12,291.20
2017,03,25,13,13,247.20
2017,03,25,13,14,214.00
2017,03,25,13,15,192.90
2017,03,25,13,16,174.70
2017,03,25,13,17,159.40
2017,03,25,13,18,148.50
2017,03,25,13,19,148.00
2017,03,25,13,20,146.60
2017,03,25,13,21,120.50
2017,03,25,13,22,114.90
2017,03,25,13,23,108.00
2017,03,25,13,24,105.00
2017,03,25,13,25,105.60
2017,03,25,13,26,107.00
2017,03,25,13,27,107.00
2017,03,25,13,28,107.00
2017,03,25,13,29,114.00
2017,03,25,13,30,121.00
2017,03,25,13,31,124.30
2017,03,25,13,32,127.60
2017,03,25,13,33,132.60
2017,03,25,13,34,142.70
2017,03,25,13,35,153.50
2017,03,25,13,36,157.60
2017,03,25,13,37,161.20
2017,03,25,13,38,160.30
2017,03,25,13,39,156.40
2017,03,25,13,40,156.00
2017,03,25,13,41,156.00
2017,03,25,13,42,154.60
2017,03,25,13,43,141.90
2017,03,25,13,44,141.00
2017,03,25,13,45,141.00
2017,03,25,13,46,140.00
2017,03,25,13,47,136.40
2017,03,25,13,48,135.00
2017,03,25,13,49,133.00
2017,03,25,13,50,128.70
2017,03,25,13,51,127.00
2017,03,25,13,52,127.00
2017,03,25,13,53,127.00
2017,03,25,13,54,124.60
2017,03,25,13,55,123.00
2017,03,25,13,56,123.00
2017,03,25,13,57,123.00
2017,03,25,13,58,123.00
2017,03,25,13,59,123.00
2017,03,25,14,00,126.40
2017,03,25,14,01,127.90
2017,03,25,14,02,128.00
2017,03,25,14,03,128.00
2017,03,25,14,04,128.00
2017,03,25,14,05,128.00
2017,03,25,14,06,128.30
2017,03,25,14,07,130.00
2017,03,25,14,08,130.00
2017,03,25,14,09,133.30
2017,03,25,14,10,143.30
2017,03,25,14,11,151.20
2017,03,25,14,12,164.00
2017,03,25,14,13,198.10
2017,03,25,14,14,225.00
2017,03,25,14,15,225.00
2017,03,25,14,16,225.00
2017,03,25,14,17,225.00
2017,03,25,14,18,627.00
2017,03,25,14,19,828.00
2017,03,25,14,20,870.70
2017,03,25,14,21,884.00
2017,03,25,14,22,873.30
2017,03,25,14,23,865.70
2017,03,25,14,24,860.20
2017,03,25,14,25,856.10
2017,03,25,14,26,858.90
2017,03,25,14,27,867.80
2017,03,25,14,28,872.00
2017,03,25,14,29,872.00
2017,03,25,14,30,742.80
2017,03,25,14,31,372.60
2017,03,25,14,32,355.50
2017,03,25,14,33,360.00
2017,03,25,14,34,360.00
2017,03,25,14,35,360.00
2017,03,25,14,36,360.00
2017,03,25,14,37,360.00
2017,03,25,14,38,360.00
2017,03,25,14,39,360.00
2017,03,25,14,40,360.00
2017,03,25,14,41,360.00
2017,03,25,14,42,360.00
2017,03,25,14,43,251.20
2017,03,25,14,44,232.00
2017,03,25,14,45,232.00
2017,03,25,14,46,250.10
2017,03,25,14,47,329.90
2017,03,25,14,48,355.90
2017,03,25,14,49,449.50
2017,03,25,14,50,475.00
2017,03,25,14,51,485.40
2017,03,25,14,52,527.00
2017,03,25,14,53,527.00
2017,03,25,14,54,505.00
2017,03,25,14,55,464.00
2017,03,25,14,56,464.00
2017,03,25,14,57,464.00
2017,03,25,14,58,464.00
2017,03,25,14,59,464.00
2017,03,25,15,00,511.40
2017,03,25,15,01,543.00
2017,03,25,15,02,480.70
2017,03,25,15,03,454.00
2017,03,25,15,04,454.00
2017,03,25,15,05,454.00
2017,03,25,15,06,377.50
2017,03,25,15,07,364.00
2017,03,25,15,08,364.00
2017,03,25,15,09,717.70
2017,03,25,15,10,636.00
2017,03,25,15,11,608.80
2017,03,25,15,12,455.00
2017,03,25,15,13,505.10
2017,03,25,15,14,694.40
2017,03,25,15,15,698.90
2017,03,25,15,16,679.00
2017,03,25,15,17,650.80
2017,03,25,15,18,670.00
2017,03,25,15,19,671.40
2017,03,25,15,20,666.00
2017,03,25,15,21,668.90
2017,03,25,15,22,684.20
2017,03,25,15,23,689.00
2017,03,25,15,24,661.00
2017,03,25,15,25,654.20
2017,03,25,15,26,656.00
2017,03,25,15,27,656.80
2017,03,25,15,28,640.80
2017,03,25,15,29,638.00
2017,03,25,15,30,634.80
2017,03,25,15,31,628.20
2017,03,25,15,32,630.30
2017,03,25,15,33,624.00
2017,03,25,15,34,624.00
2017,03,25,15,35,523.80
2017,03,25,15,36,146.80
2017,03,25,15,37,143.10
2017,03,25,15,38,140.30
2017,03,25,15,39,138.20
2017,03,25,15,40,136.20
2017,03,25,15,41,135.00
2017,03,25,15,42,136.10
2017,03,25,15,43,139.40
2017,03,25,15,44,142.90
2017,03,25,15,45,148.60
2017,03,25,15,46,151.00
2017,03,25,15,47,166.80
2017,03,25,15,48,172.00
2017,03,25,15,49,181.40
2017,03,25,15,50,183.00
2017,03,25,15,51,184.80
2017,03,25,15,52,185.00
2017,03,25,15,53,185.00
2017,03,25,15,54,185.00
2017,03,25,15,55,185.20
2017,03,25,15,56,186.00
2017,03,25,15,57,186.50
2017,03,25,15,58,187.10
2017,03,25,15,59,182.80
2017,03,25,16,00,175.30
2017,03,25,16,01,168.60
2017,03,25,16,02,163.60
2017,03,25,16,03,161.00
2017,03,25,16,04,160.00
2017,03,25,16,05,158.80
2017,03,25,16,06,156.70
2017,03,25,16,07,156.00
2017,03,25,16,08,153.90
2017,03,25,16,09,153.00
2017,03,25,16,10,156.90
2017,03,25,16,11,158.00
2017,03,25,16,12,158.00
2017,03,25,16,13,174.20
2017,03,25,16,14,185.50
2017,03,25,16,15,187.10
2017,03,25,16,16,215.30
2017,03,25,16,17,272.00
2017,03,25,16,18,272.00
2017,03,25,16,19,257.60
2017,03,25,16,20,198.80
2017,03,25,16,21,195.00
2017,03,25,16,22,195.70
2017,03,25,16,23,197.80
2017,03,25,16,24,199.00
2017,03,25,16,25,199.00
2017,03,25,16,26,199.00
2017,03,25,16,27,199.00
2017,03,25,16,28,194.80
2017,03,25,16,29,190.70
2017,03,25,16,30,190.00
2017,03,25,16,31,190.00
2017,03,25,16,32,190.00
2017,03,25,16,33,190.00
2017,03,25,16,34,190.00
2017,03,25,16,35,190.00
2017,03,25,16,36,201.40
2017,03,25,16,37,202.90
2017,03,25,16,38,220.00
2017,03,25,16,39,220.00
2017,03,25,16,40,220.00
2017,03,25,16,41,220.00
2017,03,25,16,42,220.00
2017,03,25,16,43,220.00
2017,03,25,16,44,220.00
2017,03,25,16,45,220.00
2017,03,25,16,46,236.80
2017,03,25,16,47,251.00
2017,03,25,16,48,224.70
2017,03,25,16,49,205.20
2017,03,25,16,50,195.40
2017,03,25,16,51,188.40
2017,03,25,16,52,182.50
2017,03,25,16,53,177.20
2017,03,25,16,54,174.40
2017,03,25,16,55,174.00
2017,03,25,16,56,171.40
2017,03,25,16,57,171.00
2017,03,25,16,58,171.00
2017,03,25,16,59,162.00
2017,03,25,17,00,162.00
2017,03,25,17,01,160.90
2017,03,25,17,02,154.60
2017,03,25,17,03,153.00
2017,03,25,17,04,153.00
2017,03,25,17,05,153.00
2017,03,25,17,06,153.00
2017,03,25,17,07,153.00
2017,03,25,17,08,153.00
2017,03,25,17,09,152.00
2017,03,25,17,10,152.00
2017,03,25,17,11,153.00
2017,03,25,17,12,153.00
2017,03,25,17,13,154.40
2017,03,25,17,14,155.70
2017,03,25,17,15,159.00